sat.trackr.live / text

‹ back to catalog

STARLINK-4116

NORAD 53164 · 2022-083AJ

PAYLOAD ACTIVE UNKNOWN

§ Identity

Operator
Country
US
Launch date
2022-07-17
Launch site
AFETR
Launch vehicle
Mass (kg)
RCS (m²)

Purposes: comms

External: N2YO · Heavens-Above · Gunter

§ Orbital elements

Epoch: 2026-09-19T23:52:08.145408Z

Period
93.85 min
Inclination
53.1596°
Eccentricity
0.0001423
Mean motion
15.34393746 rev/d
Perigee alt
461.7 km
Apogee alt
463.7 km
Semi-major
6,840.9 km
B*
4.6640e-5
RAAN
7.8126°
Arg perigee
72.9548°
Mean anomaly
287.1611°
Rev number
23,074

§ Raw data

STARLINK-41161 53164U 22083AJ  26262.99453872  .00001199  00000+0  46640-4 0  99922 53164  53.1596   7.8126 0001423  72.9548 287.1611 15.34393746230746

JSON: /api/v1/satellites/53164 · /tle

For live sub-satellite position, see the globe view (requires WebGL).

§ Visibility from observer

Set your observer location to see the next 7 days of passes ≥ 10°. The values pass through the URL so the page stays shareable.

No JS? Fill the form by hand. The geolocation button needs JavaScript.